Es ist keine erhöhte Aufmerksamkeit aufgrund des Wetters notwendig.    Es gibt keine Warnungen.
Webcam Vorhersage DWD Regenradar Wetterlage NRW Blitze Wind GFS-Modell
webcam


Kleve - Düffelward SSO more information Kleve - Düffelward SSO


Goch more information Goch


Weitere Templates dieser Seite und andere Webseiten:

Meteotemplate

Awekas - Template

weather34 - Template

Wetter aus Willich

Hubert Reyers' Wetter


te
World Weather Websites
Bo-Rox Wetter Topsites List
Stat Counter
 

METAR-Meldungen aus der Umgebung

   
EHDL - Nijmegen
Aktualisierung: 26-05-2020 18:25
Bewölkt  
Bewölkt  
   Wind: variiert 16.7 km/h
Wind: variiert 16.7 km/h
Temperatur: 23°C
Taupunkt: 10°C
Luftfeuchte: 44%
Luftdruck: 1034 hPa
Bewölkt: Bewölkt
Sichtbarkeit: More than 10 km
Bewölkung: leicht bewölkt 1950.7 m,
Bewölkt 4876.8 m
EHDL 261625Z AUTO VRB09KT 9999 FEW064 OVC160 23/10 Q1034 BLU
EHDL - Arnhem
Aktualisierung: 26-05-2020 18:25
Bewölkt  
Bewölkt  
   Wind: variiert 16.7 km/h
Wind: variiert 16.7 km/h
Temperatur: 23°C
Taupunkt: 10°C
Luftfeuchte: 44%
Luftdruck: 1034 hPa
Bewölkt: Bewölkt
Sichtbarkeit: More than 10 km
Bewölkung: leicht bewölkt 1950.7 m,
Bewölkt 4876.8 m
EHDL 261625Z AUTO VRB09KT 9999 FEW064 OVC160 23/10 Q1034 BLU
EHAM - Amsterdam
Aktualisierung: 26-05-2020 18:25
Klar  
Klar  
   Wind: NW 16.7 km/h
Wind: NW 16.7 km/h
Temperatur: 20°C
Taupunkt: 10°C
Luftfeuchte: 53%
Luftdruck: 1034 hPa
Sichtbarkeit: More than 10 km
Bewölkung: Klar
EHAM 261625Z 31009KT 260V020 CAVOK 20/10 Q1034 NOSIG
EHDL - Ede
Aktualisierung: 26-05-2020 18:25
Bewölkt  
Bewölkt  
   Wind: variiert 16.7 km/h
Wind: variiert 16.7 km/h
Temperatur: 23°C
Taupunkt: 10°C
Luftfeuchte: 44%
Luftdruck: 1034 hPa
Bewölkt: Bewölkt
Sichtbarkeit: More than 10 km
Bewölkung: leicht bewölkt 1950.7 m,
Bewölkt 4876.8 m
EHDL 261625Z AUTO VRB09KT 9999 FEW064 OVC160 23/10 Q1034 BLU
EHDL - Emmen
Aktualisierung: 26-05-2020 18:25
Bewölkt  
Bewölkt  
   Wind: variiert 16.7 km/h
Wind: variiert 16.7 km/h
Temperatur: 23°C
Taupunkt: 10°C
Luftfeuchte: 44%
Luftdruck: 1034 hPa
Bewölkt: Bewölkt
Sichtbarkeit: More than 10 km
Bewölkung: leicht bewölkt 1950.7 m,
Bewölkt 4876.8 m
EHDL 261625Z AUTO VRB09KT 9999 FEW064 OVC160 23/10 Q1034 BLU
EHAM - Den Haag
Aktualisierung: 26-05-2020 18:25
Klar  
Klar  
   Wind: NW 16.7 km/h
Wind: NW 16.7 km/h
Temperatur: 20°C
Taupunkt: 10°C
Luftfeuchte: 53%
Luftdruck: 1034 hPa
Sichtbarkeit: More than 10 km
Bewölkung: Klar
EHAM 261625Z 31009KT 260V020 CAVOK 20/10 Q1034 NOSIG
EHAM - Apeldoorn
Aktualisierung: 26-05-2020 18:25
Klar  
Klar  
   Wind: NW 16.7 km/h
Wind: NW 16.7 km/h
Temperatur: 20°C
Taupunkt: 10°C
Luftfeuchte: 53%
Luftdruck: 1034 hPa
Sichtbarkeit: More than 10 km
Bewölkung: Klar
EHAM 261625Z 31009KT 260V020 CAVOK 20/10 Q1034 NOSIG
EHAM - Leeuwarden
Aktualisierung: 26-05-2020 18:25
Klar  
Klar  
   Wind: NW 16.7 km/h
Wind: NW 16.7 km/h
Temperatur: 20°C
Taupunkt: 10°C
Luftfeuchte: 53%
Luftdruck: 1034 hPa
Sichtbarkeit: More than 10 km
Bewölkung: Klar
EHAM 261625Z 31009KT 260V020 CAVOK 20/10 Q1034 NOSIG
TNCC - Willemstad
Aktualisierung: 26-05-2020 18:00
Stark bewölkt  
Stark bewölkt  
   Wind: Osten 29.6 km/h
Wind: Osten 29.6 km/h
Temperatur: 30°C
Hitzeindex: 35°C
Taupunkt: 24°C
Luftfeuchte: 70%
Luftdruck: 1012 hPa
Bewölkt: Stark bewölkt
Sichtbarkeit: More than 10 km
Bewölkung: Stark bewölkt 548.6 m
TNCC 261600Z 10016KT 9999 BKN018 30/24 Q1012 NOSIG
EHEH - Eindhoven
Aktualisierung: 26-05-2020 18:25
Stark bewölkt  
Stark bewölkt  
   Wind: Norden 14.8 km/h
Wind: Norden 14.8 km/h
Temperatur: 24°C
Taupunkt: 8°C
Luftfeuchte: 36%
Luftdruck: 1034 hPa
Bewölkt: Stark bewölkt
Sichtbarkeit: More than 10 km
Bewölkung: Stark bewölkt 9753.6 m
EHEH 261625Z AUTO 35008KT 320V050 9999 BKN320 24/08 Q1034 BLU 03008T CAVOK
EHAM - Middelburg
Aktualisierung: 26-05-2020 18:25
Klar  
Klar  
   Wind: NW 16.7 km/h
Wind: NW 16.7 km/h
Temperatur: 20°C
Taupunkt: 10°C
Luftfeuchte: 53%
Luftdruck: 1034 hPa
Sichtbarkeit: More than 10 km
Bewölkung: Klar
EHAM 261625Z 31009KT 260V020 CAVOK 20/10 Q1034 NOSIG
EHAM - Delfzijl
Aktualisierung: 26-05-2020 18:25
Klar  
Klar  
   Wind: NW 16.7 km/h
Wind: NW 16.7 km/h
Temperatur: 20°C
Taupunkt: 10°C
Luftfeuchte: 53%
Luftdruck: 1034 hPa
Sichtbarkeit: More than 10 km
Bewölkung: Klar
EHAM 261625Z 31009KT 260V020 CAVOK 20/10 Q1034 NOSIG

Script entwickelt von  Saratoga-weather.org Angepasst für das Template von  Weerstation Leuven

Sie finden Wetter-Infos dieser Station auch auf:

UK Metoffice

European Weather Network

WeatherCloud

Weather Underground

AWEKAS

Neuwetter

Wettersektor

Von uns verwendete Ausrüstung:

Wetterstation
Davis Vantage Pro2

Wetterprogramm
Meteobridge

WetterComputer
Computer

Davis Vantage Pro2

Meteobridge

Computer